sat.trackr.live / text

‹ back to catalog

STARLINK-35988

NORAD 66615 · 2025-270AD

PAYLOAD ACTIVE UNKNOWN

§ Identity

Operator
Country
US
Launch date
2025-11-22
Launch site
AFETR
Launch vehicle
Mass (kg)
RCS (m²)

Purposes: comms

External: N2YO · Heavens-Above · Gunter

§ Orbital elements

Epoch: 2026-05-24T17:03:59.821056Z

Period
94.27 min
Inclination
43.0004°
Eccentricity
0.0001172
Mean motion
15.27588423 rev/d
Perigee alt
482.2 km
Apogee alt
483.8 km
Semi-major
6,861.2 km
B*
5.1466e-4
RAAN
346.7404°
Arg perigee
271.3505°
Mean anomaly
88.7212°
Rev number
2,917

§ Raw data

STARLINK-359881 66615U 25270AD  26144.71110904  .00013931  00000+0  51466-3 0  99912 66615  43.0004 346.7404 0001172 271.3505  88.7212 15.27588423 29171

JSON: /api/v1/satellites/66615 · /tle

For live sub-satellite position, see the globe view (requires WebGL).

§ Visibility from observer

Set your observer location to see the next 7 days of passes ≥ 10°. The values pass through the URL so the page stays shareable.

No JS? Fill the form by hand. The geolocation button needs JavaScript.